USY2765 EDDF-EGLL

Flight info

Callsign USY2765
Flight time 1h 7m
Altitude 38000
Route OBOKA3W OBOKA Z29 TORNU DCT ABNED L980 LOGAN
Aircraft A346/H-SDE2E3FGHIJ3J4J5M1RWXY/LB1D1

Departure

Time 2026-05-07 18:26
Airport Frankfurt Main Airport (EDDF)

Arrival

Time 2026-05-07 19:34
Airport London Heathrow Airport (EGLL)
Time Latitude Longitude Altitude Speed Heading
2026-05-07 17:55 50.03779 8.53367 351 ft 0 kts 339°
2026-05-07 18:14 50.03758 8.53379 361 ft 4 kts 340°
2026-05-07 18:14 50.03736 8.53392 360 ft 3 kts 338°
2026-05-07 18:14 50.03714 8.53400 360 ft 4 kts
2026-05-07 18:15 50.03695 8.53391 360 ft 4 kts 37°
2026-05-07 18:15 50.03680 8.53363 360 ft 4 kts 61°
2026-05-07 18:15 50.03669 8.53326 360 ft 4 kts 69°
2026-05-07 18:15 50.03665 8.53310 359 ft 0 kts 69°
2026-05-07 18:21 50.03670 8.53330 360 ft 7 kts 69°
2026-05-07 18:21 50.03694 8.53431 357 ft 9 kts 69°
2026-05-07 18:21 50.03694 8.53537 356 ft 12 kts 121°
2026-05-07 18:22 50.03626 8.53550 358 ft 12 kts 199°
2026-05-07 18:22 50.03570 8.53516 358 ft 14 kts 202°
2026-05-07 18:22 50.03547 8.53501 357 ft 3 kts 202°
2026-05-07 18:22 50.03521 8.53492 355 ft 7 kts 173°
2026-05-07 18:23 50.03488 8.53542 351 ft 12 kts 99°
2026-05-07 18:23 50.03513 8.53717 356 ft 20 kts 69°
2026-05-07 18:23 50.03564 8.53925 358 ft 21 kts 69°
2026-05-07 18:23 50.03615 8.54134 355 ft 12 kts 69°
2026-05-07 18:24 50.03635 8.54226 357 ft 6 kts 92°
2026-05-07 18:24 50.03603 8.54308 357 ft 13 kts 144°
2026-05-07 18:24 50.03519 8.54364 360 ft 8 kts 159°
2026-05-07 18:24 50.03488 8.54401 357 ft 3 kts 67°
2026-05-07 18:25 50.03495 8.54430 354 ft 13 kts 70°
2026-05-07 18:25 50.03604 8.54876 360 ft 77 kts 69°
2026-05-07 18:25 50.03860 8.55941 364 ft 132 kts 70°
2026-05-07 18:25 50.04235 8.57511 419 ft 169 kts 69°
2026-05-07 18:26 50.04658 8.59268 836 ft 177 kts 69°
2026-05-07 18:26 50.05098 8.61109 1375 ft 183 kts 70°
2026-05-07 18:26 50.05498 8.62954 2156 ft 176 kts 70°
2026-05-07 18:26 50.05889 8.64788 2684 ft 184 kts 69°
2026-05-07 18:27 50.06319 8.66757 3023 ft 200 kts 69°
2026-05-07 18:27 50.06792 8.68897 3366 ft 217 kts 69°
2026-05-07 18:27 50.07567 8.70978 3731 ft 229 kts 42°
2026-05-07 18:27 50.08943 8.72309 4227 ft 241 kts 23°
2026-05-07 18:28 50.10541 8.73373 4688 ft 257 kts 21°
2026-05-07 18:28 50.12220 8.74460 5339 ft 264 kts 21°
2026-05-07 18:28 50.13927 8.75582 6140 ft 268 kts 21°
2026-05-07 18:28 50.15657 8.76735 6950 ft 272 kts 21°
2026-05-07 18:29 50.17416 8.77918 7767 ft 276 kts 21°
2026-05-07 18:29 50.19196 8.79123 8607 ft 280 kts 21°
2026-05-07 18:29 50.20999 8.80336 9468 ft 283 kts 21°
2026-05-07 18:29 50.22830 8.81524 10329 ft 286 kts 15°
2026-05-07 18:30 50.24805 8.81935 10855 ft 297 kts 353°
2026-05-07 18:30 50.26826 8.81031 11311 ft 310 kts 330°
2026-05-07 18:30 50.28565 8.78908 11670 ft 327 kts 310°
2026-05-07 18:30 50.29753 8.75779 12013 ft 345 kts 289°
2026-05-07 18:31 50.30421 8.72048 12136 ft 365 kts 285°
2026-05-07 18:31 50.31160 8.68204 12033 ft 369 kts 288°
2026-05-07 18:31 50.32006 8.64364 12187 ft 379 kts 289°
2026-05-07 18:31 50.32916 8.60437 13037 ft 380 kts 289°
2026-05-07 18:32 50.33804 8.56538 14069 ft 380 kts 289°
2026-05-07 18:32 50.34669 8.52652 14766 ft 385 kts 288°
2026-05-07 18:32 50.35556 8.48610 15478 ft 390 kts 289°
2026-05-07 18:32 50.36603 8.44718 16184 ft 394 kts 296°
2026-05-07 18:33 50.37924 8.40938 16930 ft 397 kts 299°
2026-05-07 18:33 50.39304 8.37151 17727 ft 400 kts 299°
2026-05-07 18:33 50.40680 8.33347 18477 ft 403 kts 298°
2026-05-07 18:33 50.42057 8.29490 19144 ft 405 kts 298°
2026-05-07 18:34 50.43433 8.25599 19698 ft 411 kts 298°
2026-05-07 18:34 50.44820 8.21637 20262 ft 416 kts 297°
2026-05-07 18:34 50.46216 8.17615 20874 ft 420 kts 297°
2026-05-07 18:34 50.47615 8.13559 21509 ft 423 kts 297°
2026-05-07 18:35 50.49016 8.09477 22118 ft 426 kts 297°
2026-05-07 18:35 50.50427 8.05350 22726 ft 430 kts 297°
2026-05-07 18:35 50.51847 8.01186 23326 ft 433 kts 297°
2026-05-07 18:35 50.53270 7.97005 23837 ft 437 kts 297°
2026-05-07 18:36 50.54705 7.92779 24066 ft 439 kts 297°
2026-05-07 18:36 50.56156 7.88504 24412 ft 444 kts 297°
2026-05-07 18:36 50.57591 7.84265 24975 ft 445 kts 297°
2026-05-07 18:36 50.59049 7.79947 25522 ft 447 kts 297°
2026-05-07 18:37 50.60511 7.75606 25949 ft 450 kts 297°
2026-05-07 18:37 50.61980 7.71240 26054 ft 451 kts 297°
2026-05-07 18:37 50.63448 7.66875 26049 ft 450 kts 297°
2026-05-07 18:37 50.64916 7.62502 26053 ft 451 kts 297°
2026-05-07 18:38 50.66383 7.58125 26057 ft 451 kts 297°
2026-05-07 18:38 50.67846 7.53749 26055 ft 451 kts 296°
2026-05-07 18:38 50.69318 7.49339 26056 ft 451 kts 296°
2026-05-07 18:38 50.70780 7.44950 26062 ft 451 kts 296°
2026-05-07 18:39 50.72252 7.40521 26272 ft 457 kts 296°
2026-05-07 18:39 50.73727 7.36072 26874 ft 457 kts 296°
2026-05-07 18:39 50.75201 7.31611 27438 ft 458 kts 296°
2026-05-07 18:39 50.76672 7.27114 27888 ft 462 kts 296°
2026-05-07 18:40 50.78130 7.22637 28334 ft 465 kts 296°
2026-05-07 18:40 50.79610 7.18085 28973 ft 464 kts 296°
2026-05-07 18:40 50.81079 7.13559 29700 ft 461 kts 296°
2026-05-07 18:40 50.82541 7.09052 30374 ft 458 kts 296°
2026-05-07 18:41 50.83997 7.04553 30957 ft 457 kts 296°
2026-05-07 18:41 50.85446 7.00077 31505 ft 455 kts 296°
2026-05-07 18:41 50.86882 6.95625 32048 ft 454 kts 295°
2026-05-07 18:41 50.88317 6.91168 32584 ft 453 kts 295°
2026-05-07 18:42 50.89754 6.86700 33108 ft 452 kts 295°
2026-05-07 18:42 50.91184 6.82246 33637 ft 451 kts 295°
2026-05-07 18:42 50.92603 6.77816 34132 ft 450 kts 295°
2026-05-07 18:42 50.94020 6.73387 34546 ft 450 kts 295°
2026-05-07 18:43 50.95422 6.68996 34922 ft 450 kts 295°
2026-05-07 18:43 50.96855 6.64503 35285 ft 450 kts 295°
2026-05-07 18:43 50.98266 6.60067 35642 ft 450 kts 295°
2026-05-07 18:43 50.99684 6.55608 35987 ft 450 kts 295°
2026-05-07 18:44 51.01089 6.51172 36328 ft 450 kts 295°
2026-05-07 18:44 51.02479 6.46778 36611 ft 451 kts 295°
2026-05-07 18:44 51.03891 6.42301 36825 ft 453 kts 295°
2026-05-07 18:44 51.05308 6.37804 37065 ft 455 kts 295°
2026-05-07 18:45 51.06728 6.33289 37302 ft 457 kts 294°
2026-05-07 18:45 51.08152 6.28754 37532 ft 458 kts 294°
2026-05-07 18:45 51.09573 6.24216 37754 ft 459 kts 294°
2026-05-07 18:45 51.11002 6.19648 37951 ft 461 kts 294°
2026-05-07 18:46 51.12379 6.15013 38104 ft 462 kts 291°
2026-05-07 18:46 51.14702 6.05455 38098 ft 462 kts 286°
2026-05-07 18:47 51.16416 5.95610 38078 ft 461 kts 282°
2026-05-07 18:47 51.18038 5.85714 38066 ft 461 kts 285°
2026-05-07 18:48 51.20242 5.76071 38069 ft 463 kts 290°
2026-05-07 18:48 51.22723 5.66638 38066 ft 464 kts 291°
2026-05-07 18:49 51.25231 5.57130 38071 ft 464 kts 291°
2026-05-07 18:49 51.27725 5.47617 38082 ft 464 kts 290°
2026-05-07 18:50 51.29792 5.39693 38079 ft 464 kts 290°
2026-05-07 18:50 51.32272 5.30148 38079 ft 464 kts 290°
2026-05-07 18:51 51.34741 5.20602 38072 ft 464 kts 290°
2026-05-07 18:51 51.37201 5.11051 38074 ft 463 kts 290°
2026-05-07 18:52 51.39651 5.01499 38078 ft 463 kts 290°
2026-05-07 18:52 51.42095 4.91928 38073 ft 463 kts 290°
2026-05-07 18:53 51.44533 4.82341 38076 ft 463 kts 290°
2026-05-07 18:53 51.46965 4.72739 38076 ft 463 kts 290°
2026-05-07 18:54 51.49394 4.63106 38075 ft 464 kts 290°
2026-05-07 18:54 51.51797 4.53536 38074 ft 465 kts 290°
2026-05-07 18:55 51.54209 4.43885 38074 ft 465 kts 290°
2026-05-07 18:55 51.56615 4.34222 38073 ft 465 kts 290°
2026-05-07 18:56 51.59008 4.24562 38077 ft 465 kts 290°
2026-05-07 18:56 51.61398 4.14878 38077 ft 465 kts 290°
2026-05-07 18:57 51.63780 4.05179 38075 ft 465 kts 289°
2026-05-07 18:57 51.66135 3.95551 38084 ft 465 kts 289°
2026-05-07 18:58 51.68500 3.85836 38099 ft 465 kts 289°
2026-05-07 18:58 51.70859 3.76107 38093 ft 464 kts 289°
2026-05-07 18:59 51.73205 3.66381 38095 ft 464 kts 289°
2026-05-07 18:59 51.75544 3.56646 38108 ft 464 kts 289°
2026-05-07 19:00 51.77874 3.46901 38098 ft 465 kts 289°
2026-05-07 19:00 51.80182 3.37204 38105 ft 465 kts 289°
2026-05-07 19:01 51.82367 3.27377 38101 ft 463 kts 284°
2026-05-07 19:01 51.83721 3.17186 38097 ft 462 kts 276°
2026-05-07 19:02 51.84122 3.06835 38086 ft 460 kts 268°
2026-05-07 19:02 51.83675 2.96514 38086 ft 459 kts 263°
2026-05-07 19:03 51.83052 2.86298 37659 ft 452 kts 263°
2026-05-07 19:03 51.82738 2.81226 37036 ft 452 kts 263°
2026-05-07 19:03 51.82425 2.76178 36550 ft 448 kts 263°
2026-05-07 19:03 51.82114 2.71177 36083 ft 445 kts 263°
2026-05-07 19:04 51.81804 2.66206 35536 ft 443 kts 263°
2026-05-07 19:04 51.81491 2.61236 34975 ft 443 kts 263°
2026-05-07 19:04 51.81182 2.56346 34433 ft 442 kts 263°
2026-05-07 19:04 51.80868 2.51412 33870 ft 441 kts 263°
2026-05-07 19:05 51.80552 2.46484 33208 ft 440 kts 263°
2026-05-07 19:05 51.80234 2.41546 32511 ft 441 kts 263°
2026-05-07 19:05 51.79913 2.36596 31798 ft 442 kts 263°
2026-05-07 19:05 51.79589 2.31636 31089 ft 444 kts 263°
2026-05-07 19:06 51.79262 2.26663 30389 ft 445 kts 263°
2026-05-07 19:06 51.78596 2.16655 28783 ft 447 kts 263°
2026-05-07 19:06 51.78264 2.11702 28479 ft 437 kts 263°
2026-05-07 19:07 51.77942 2.06809 26801 ft 453 kts 264°
2026-05-07 19:07 51.77608 2.01775 26512 ft 444 kts 263°
2026-05-07 19:07 51.77270 1.96872 26074 ft 434 kts 263°
2026-05-07 19:07 51.76939 1.92108 25448 ft 419 kts 263°
2026-05-07 19:08 51.76620 1.87538 25019 ft 400 kts 263°
2026-05-07 19:08 51.76315 1.83167 24649 ft 382 kts 263°
2026-05-07 19:08 51.76027 1.79057 24400 ft 365 kts 263°
2026-05-07 19:08 51.75745 1.75051 24123 ft 352 kts 263°
2026-05-07 19:09 51.75471 1.71176 23968 ft 343 kts 263°
2026-05-07 19:09 51.75197 1.67338 23573 ft 344 kts 263°
2026-05-07 19:09 51.74922 1.63489 23115 ft 344 kts 263°
2026-05-07 19:09 51.74653 1.59649 22679 ft 343 kts 263°
2026-05-07 19:10 51.74409 1.55833 22249 ft 341 kts 263°
2026-05-07 19:10 51.74169 1.52034 21814 ft 339 kts 263°
2026-05-07 19:10 51.73930 1.48252 21386 ft 337 kts 263°
2026-05-07 19:10 51.73690 1.44496 20976 ft 335 kts 263°
2026-05-07 19:11 51.73449 1.40761 20562 ft 334 kts 263°
2026-05-07 19:11 51.73207 1.37037 20157 ft 332 kts 263°
2026-05-07 19:11 51.72965 1.33328 19750 ft 331 kts 263°
2026-05-07 19:11 51.72722 1.29640 19355 ft 329 kts 263°
2026-05-07 19:12 51.72479 1.25969 18967 ft 328 kts 263°
2026-05-07 19:12 51.72237 1.22316 18582 ft 327 kts 263°
2026-05-07 19:12 51.71993 1.18672 18172 ft 325 kts 263°
2026-05-07 19:12 51.71751 1.15051 17731 ft 324 kts 263°
2026-05-07 19:13 51.71508 1.11440 17307 ft 323 kts 263°
2026-05-07 19:13 51.71265 1.07837 16882 ft 321 kts 262°
2026-05-07 19:13 51.71023 1.04299 16462 ft 320 kts 262°
2026-05-07 19:13 51.70779 1.00729 16047 ft 319 kts 262°
2026-05-07 19:14 51.70535 0.97179 15636 ft 318 kts 262°
2026-05-07 19:14 51.70291 0.93629 15237 ft 317 kts 262°
2026-05-07 19:14 51.70047 0.90100 14842 ft 316 kts 262°
2026-05-07 19:14 51.69802 0.86575 14443 ft 315 kts 262°
2026-05-07 19:15 51.69557 0.83059 14058 ft 314 kts 261°
2026-05-07 19:15 51.69309 0.79536 13644 ft 313 kts 261°
2026-05-07 19:15 51.69061 0.76045 13211 ft 312 kts 261°
2026-05-07 19:15 51.68813 0.72565 12784 ft 311 kts 261°
2026-05-07 19:16 51.68566 0.69100 12366 ft 310 kts 262°
2026-05-07 19:16 51.68311 0.65500 11938 ft 309 kts 262°
2026-05-07 19:16 51.68078 0.62239 11544 ft 308 kts 262°
2026-05-07 19:16 51.67835 0.58807 11142 ft 307 kts 261°
2026-05-07 19:17 51.67588 0.55394 10743 ft 306 kts 262°
2026-05-07 19:17 51.67342 0.51994 10348 ft 310 kts 262°
2026-05-07 19:17 51.67076 0.48379 9966 ft 333 kts 262°
2026-05-07 19:17 51.66804 0.44650 9532 ft 334 kts 262°
2026-05-07 19:18 51.66533 0.40933 9110 ft 332 kts 262°
2026-05-07 19:18 51.66262 0.37250 8683 ft 329 kts 262°
2026-05-07 19:18 51.65987 0.33599 8255 ft 327 kts 262°
2026-05-07 19:18 51.65716 0.29953 8071 ft 327 kts 262°
2026-05-07 19:19 51.65441 0.26278 8075 ft 329 kts 262°
2026-05-07 19:19 51.65234 0.22598 8075 ft 328 kts 265°
2026-05-07 19:19 51.65099 0.18916 8074 ft 328 kts 265°
2026-05-07 19:19 51.64984 0.15248 8071 ft 328 kts 266°
2026-05-07 19:20 51.64868 0.11570 8070 ft 329 kts 266°
2026-05-07 19:20 51.64753 0.07929 8071 ft 329 kts 266°
2026-05-07 19:20 51.64633 0.04241 8072 ft 329 kts 266°
2026-05-07 19:20 51.64509 0.00559 8072 ft 328 kts 265°
2026-05-07 19:21 51.64385 -0.03123 8069 ft 329 kts 266°
2026-05-07 19:21 51.64257 -0.06679 8072 ft 329 kts 266°
2026-05-07 19:21 51.64127 -0.10248 8069 ft 328 kts 266°
2026-05-07 19:21 51.63993 -0.13879 7788 ft 322 kts 266°
2026-05-07 19:22 51.63855 -0.17495 7254 ft 322 kts 266°
2026-05-07 19:22 51.63712 -0.21109 7077 ft 324 kts 266°
2026-05-07 19:22 51.63566 -0.24745 7080 ft 326 kts 266°
2026-05-07 19:22 51.63421 -0.28341 7079 ft 325 kts 266°
2026-05-07 19:23 51.63273 -0.32031 7080 ft 325 kts 266°
2026-05-07 19:23 51.63125 -0.35671 7046 ft 325 kts 266°
2026-05-07 19:23 51.62977 -0.39309 7043 ft 326 kts 266°
2026-05-07 19:23 51.62824 -0.42970 7050 ft 326 kts 266°
2026-05-07 19:24 51.62674 -0.46603 7043 ft 321 kts 266°
2026-05-07 19:24 51.62530 -0.50100 7033 ft 305 kts 266°
2026-05-07 19:24 51.62395 -0.53407 6810 ft 294 kts 266°
2026-05-07 19:24 51.62259 -0.56625 6472 ft 280 kts 266°
2026-05-07 19:25 51.62126 -0.59678 6194 ft 267 kts 266°
2026-05-07 19:25 51.61998 -0.62591 5924 ft 253 kts 266°
2026-05-07 19:25 51.61876 -0.65364 5586 ft 244 kts 266°
2026-05-07 19:25 51.61757 -0.68092 5212 ft 238 kts 264°
2026-05-07 19:26 51.61352 -0.70648 4778 ft 234 kts 246°
2026-05-07 19:26 51.60655 -0.73001 4332 ft 232 kts 242°
2026-05-07 19:26 51.59907 -0.75303 4054 ft 230 kts 241°
2026-05-07 19:26 51.59118 -0.77555 4001 ft 231 kts 231°
2026-05-07 19:27 51.57865 -0.79105 3980 ft 229 kts 197°
2026-05-07 19:27 51.56302 -0.79576 4021 ft 230 kts 184°
2026-05-07 19:27 51.54701 -0.79740 4009 ft 231 kts 181°
2026-05-07 19:27 51.53121 -0.79844 3988 ft 221 kts 181°
2026-05-07 19:28 51.51627 -0.79936 3977 ft 208 kts 180°
2026-05-07 19:28 51.50234 -0.80036 3967 ft 193 kts 181°
2026-05-07 19:28 51.48940 -0.79777 3993 ft 187 kts 151°
2026-05-07 19:28 51.48041 -0.78340 4004 ft 182 kts 116°
2026-05-07 19:29 51.47682 -0.76424 3696 ft 180 kts 97°
2026-05-07 19:29 51.47611 -0.74405 3300 ft 181 kts 89°
2026-05-07 19:29 51.47654 -0.72452 3061 ft 172 kts 88°
2026-05-07 19:29 51.47696 -0.70589 2827 ft 161 kts 90°
2026-05-07 19:30 51.47717 -0.68805 2586 ft 160 kts 90°
2026-05-07 19:30 51.47724 -0.67012 2386 ft 161 kts 91°
2026-05-07 19:30 51.47726 -0.65208 2175 ft 162 kts 92°
2026-05-07 19:30 51.47725 -0.63401 1944 ft 161 kts 92°
2026-05-07 19:31 51.47725 -0.61596 1739 ft 162 kts 92°
2026-05-07 19:31 51.47727 -0.59781 1502 ft 162 kts 91°
2026-05-07 19:31 51.47729 -0.57971 1284 ft 162 kts 91°
2026-05-07 19:31 51.47729 -0.56160 1057 ft 163 kts 92°
2026-05-07 19:32 51.47731 -0.54377 843 ft 157 kts 94°
2026-05-07 19:32 51.47733 -0.52662 612 ft 151 kts 92°
2026-05-07 19:32 51.47742 -0.50989 393 ft 150 kts 93°
2026-05-07 19:32 51.47748 -0.49310 258 ft 147 kts 93°
2026-05-07 19:33 51.47753 -0.47739 96 ft 134 kts 93°
2026-05-07 19:33 51.47750 -0.46588 98 ft 65 kts 90°
2026-05-07 19:33 51.47750 -0.45893 93 ft 60 kts 89°
2026-05-07 19:33 51.47755 -0.45235 99 ft 57 kts 89°
2026-05-07 19:34 51.47698 -0.44847 101 ft 23 kts 142°
2026-05-07 19:34 51.47625 -0.44779 100 ft 7 kts 142°
2026-05-07 19:34 51.47616 -0.44766 98 ft 2 kts 138°
2026-05-07 19:34 51.47610 -0.44756 98 ft 0 kts 118°
2026-05-07 19:35 51.47608 -0.44748 98 ft 2 kts 117°
2026-05-07 19:35 51.47599 -0.44712 99 ft 3 kts 107°
2026-05-07 19:35 51.47598 -0.44711 99 ft 0 kts 107°
2026-05-07 19:36 51.47593 -0.44697 99 ft 6 kts 130°
2026-05-07 19:36 51.47545 -0.44681 97 ft 8 kts 195°
2026-05-07 19:36 51.47509 -0.44763 98 ft 10 kts 260°
2026-05-07 19:36 51.47510 -0.44896 98 ft 13 kts 270°
2026-05-07 19:37 51.47510 -0.45063 98 ft 16 kts 269°
2026-05-07 19:37 51.47510 -0.45164 98 ft 5 kts 269°
2026-05-07 19:37 51.47509 -0.45268 98 ft 12 kts 269°
2026-05-07 19:37 51.47508 -0.45422 98 ft 15 kts 269°
2026-05-07 19:38 51.47507 -0.45611 98 ft 19 kts 269°
2026-05-07 19:38 51.47515 -0.45805 96 ft 11 kts 275°
2026-05-07 19:38 51.47520 -0.45943 98 ft 14 kts 270°
2026-05-07 19:38 51.47520 -0.46112 98 ft 17 kts 270°
2026-05-07 19:39 51.47517 -0.46318 95 ft 20 kts 268°
2026-05-07 19:39 51.47513 -0.46558 98 ft 23 kts 268°
2026-05-07 19:39 51.47503 -0.46742 97 ft 14 kts 258°
2026-05-07 19:39 51.47496 -0.46839 98 ft 1 kts 266°
2026-05-07 19:40 51.47481 -0.46902 97 ft 6 kts 207°
2026-05-07 19:40 51.47431 -0.46892 96 ft 13 kts 169°
2026-05-07 19:40 51.47323 -0.46870 98 ft 10 kts 177°
2026-05-07 19:40 51.47257 -0.46867 95 ft 10 kts 179°
2026-05-07 19:41 51.47165 -0.46867 95 ft 15 kts 180°
2026-05-07 19:41 51.47091 -0.46866 95 ft 6 kts 180°
2026-05-07 19:41 51.47057 -0.46878 99 ft 3 kts 255°
2026-05-07 19:41 51.47053 -0.46945 98 ft 5 kts 265°
2026-05-07 19:42 51.47053 -0.46978 98 ft 2 kts 269°
2026-05-07 19:42 51.47053 -0.46986 98 ft 0 kts 269°